Year,Month,Day,Hour,Minute,Value (Times are PST for windspeed in km/hr)
2009,03,15,00,00,7.70
2009,03,15,00,01,12.10
2009,03,15,00,02,12.20
2009,03,15,00,03,14.00
2009,03,15,00,04,11.80
2009,03,15,00,05,8.80
2009,03,15,00,06,15.40
2009,03,15,00,07,13.00
2009,03,15,00,08,14.80
2009,03,15,00,09,12.60
2009,03,15,00,10,13.40
2009,03,15,00,11,11.00
2009,03,15,00,12,8.60
2009,03,15,01,02,8.20
2009,03,15,01,03,10.50
2009,03,15,01,04,16.50
2009,03,15,01,05,10.30
2009,03,15,01,06,12.40
2009,03,15,01,07,14.70
2009,03,15,01,08,17.90
2009,03,15,01,09,11.70
2009,03,15,01,10,15.00
2009,03,15,01,11,15.40
2009,03,15,01,12,11.60
2009,03,15,01,13,15.10
2009,03,15,01,14,19.80
2009,03,15,01,15,20.00
2009,03,15,01,16,18.00
2009,03,15,01,17,18.40
2009,03,15,01,18,26.30
2009,03,15,01,19,20.50
2009,03,15,01,20,16.90
2009,03,15,01,21,18.00
2009,03,15,01,22,21.20
2009,03,15,01,23,16.80
2009,03,15,01,24,17.90
2009,03,15,01,25,15.80
2009,03,15,01,26,21.00
2009,03,15,01,27,25.00
2009,03,15,01,28,21.90
2009,03,15,01,29,20.20
2009,03,15,01,30,12.30
2009,03,15,01,31,13.60
2009,03,15,01,32,13.20
2009,03,15,01,33,10.90
2009,03,15,01,34,9.80
2009,03,15,01,35,17.20
2009,03,15,01,36,13.60
2009,03,15,01,37,11.70
2009,03,15,01,38,14.40
2009,03,15,01,39,7.40
2009,03,15,01,40,8.00
2009,03,15,01,41,4.90
2009,03,15,01,42,8.10
2009,03,15,01,43,11.50
2009,03,15,01,44,6.40
2009,03,15,01,45,7.00
2009,03,15,01,46,4.40
2009,03,15,01,47,5.70
2009,03,15,01,48,6.50
2009,03,15,01,49,3.30
2009,03,15,01,50,5.60
2009,03,15,01,51,6.20
2009,03,15,01,52,4.30
2009,03,15,01,53,2.70
2009,03,15,01,54,5.40
2009,03,15,01,55,4.30
2009,03,15,01,56,2.70
2009,03,15,01,57,2.70
2009,03,15,01,58,4.30
2009,03,15,01,59,4.70
2009,03,15,02,00,5.30
2009,03,15,02,01,3.60
2009,03,15,02,02,4.10
2009,03,15,02,03,4.20
2009,03,15,02,04,6.40
2009,03,15,02,05,4.80
2009,03,15,02,06,5.30
2009,03,15,02,07,5.00
2009,03,15,02,08,11.00
2009,03,15,02,09,4.20
2009,03,15,02,10,1.40
2009,03,15,02,11,4.90
2009,03,15,02,12,6.40
2009,03,15,02,13,5.20
2009,03,15,02,14,4.30
2009,03,15,02,15,1.40
2009,03,15,02,16,3.00
2009,03,15,02,17,3.00
2009,03,15,02,18,2.10
2009,03,15,02,19,2.40
2009,03,15,02,20,1.90
2009,03,15,02,21,0.00
2009,03,15,02,22,0.60
2009,03,15,02,23,0.10
2009,03,15,02,24,0.00
2009,03,15,02,25,0.80
2009,03,15,02,26,2.10
2009,03,15,02,27,1.50
2009,03,15,02,28,3.10
2009,03,15,02,29,1.30
2009,03,15,02,30,0.00
2009,03,15,02,31,1.30
2009,03,15,02,32,0.70
2009,03,15,02,33,0.00
2009,03,15,02,34,0.90
2009,03,15,02,35,1.10
2009,03,15,02,36,1.20
2009,03,15,02,37,0.30
2009,03,15,02,38,0.00
2009,03,15,02,39,0.00
2009,03,15,02,40,0.70
2009,03,15,02,41,1.10
2009,03,15,02,42,0.00
2009,03,15,02,43,0.00
2009,03,15,02,44,0.10
2009,03,15,02,45,0.50
2009,03,15,02,46,0.00
2009,03,15,02,47,0.00
2009,03,15,02,48,0.00
2009,03,15,02,49,0.00
2009,03,15,02,50,0.20
2009,03,15,02,51,0.20
2009,03,15,02,52,0.00
2009,03,15,02,53,0.00
2009,03,15,02,54,0.00
2009,03,15,02,55,0.10
2009,03,15,02,56,0.00
2009,03,15,02,57,0.00
2009,03,15,02,58,0.00
2009,03,15,02,59,0.90
2009,03,15,03,00,0.00
2009,03,15,03,01,0.00
2009,03,15,03,02,0.00
2009,03,15,03,03,0.00
2009,03,15,03,04,0.00
2009,03,15,03,05,0.20
2009,03,15,03,06,2.50
2009,03,15,03,07,3.30
2009,03,15,03,08,3.90
2009,03,15,03,09,3.00
2009,03,15,03,10,0.80
2009,03,15,03,11,0.40
2009,03,15,03,12,0.10
2009,03,15,03,13,0.00
2009,03,15,03,14,0.00
2009,03,15,03,15,0.00
2009,03,15,03,16,0.00
2009,03,15,03,17,0.00
2009,03,15,03,18,0.00
2009,03,15,03,19,0.00
2009,03,15,03,20,0.00
2009,03,15,03,21,0.00
2009,03,15,03,22,0.00
2009,03,15,03,23,0.00
2009,03,15,03,24,0.00
2009,03,15,03,25,0.00
2009,03,15,03,26,0.00
2009,03,15,03,27,0.00
2009,03,15,03,28,0.00
2009,03,15,03,29,0.00
2009,03,15,03,30,0.00
2009,03,15,03,31,0.00
2009,03,15,03,32,0.00
2009,03,15,03,33,0.00
2009,03,15,03,34,0.00
2009,03,15,03,35,0.00
2009,03,15,03,36,0.00
2009,03,15,03,37,0.00
2009,03,15,03,38,0.00
2009,03,15,03,39,0.00
2009,03,15,03,40,0.00
2009,03,15,03,41,0.00
2009,03,15,03,42,0.00
2009,03,15,03,43,0.00
2009,03,15,03,44,0.00
2009,03,15,03,45,0.00
2009,03,15,03,46,0.00
2009,03,15,03,47,0.00
2009,03,15,03,48,0.00
2009,03,15,03,49,0.00
2009,03,15,03,50,0.00
2009,03,15,03,51,0.00
2009,03,15,03,52,0.00
2009,03,15,03,53,1.10
2009,03,15,03,54,1.50
2009,03,15,03,55,0.00
2009,03,15,03,56,0.00
2009,03,15,03,57,0.00
2009,03,15,03,58,0.00
2009,03,15,03,59,0.00
2009,03,15,04,00,0.00
2009,03,15,04,01,0.00
2009,03,15,04,02,0.00
2009,03,15,04,03,0.00
2009,03,15,04,04,0.00
2009,03,15,04,05,0.00
2009,03,15,04,06,0.00
2009,03,15,04,07,2.40
2009,03,15,04,08,0.80
2009,03,15,04,09,0.60
2009,03,15,04,10,0.00
2009,03,15,04,11,0.00
2009,03,15,04,12,0.00
2009,03,15,04,13,0.00
2009,03,15,04,14,0.00
2009,03,15,04,15,0.00
2009,03,15,04,16,0.00
2009,03,15,04,17,0.00
2009,03,15,04,18,0.00
2009,03,15,04,19,0.00
2009,03,15,04,20,0.00
2009,03,15,04,21,0.00
2009,03,15,04,22,0.00
2009,03,15,04,23,0.00
2009,03,15,04,24,0.00
2009,03,15,04,25,0.00
2009,03,15,04,26,0.00
2009,03,15,04,27,0.00
2009,03,15,04,28,0.00
2009,03,15,04,29,0.00
2009,03,15,04,30,0.00
2009,03,15,04,31,0.00
2009,03,15,04,32,0.00
2009,03,15,04,33,0.00
2009,03,15,04,34,0.00
2009,03,15,04,35,0.00
2009,03,15,04,36,0.00
2009,03,15,04,37,0.00
2009,03,15,04,38,0.00
2009,03,15,04,39,0.00
2009,03,15,04,40,0.00
2009,03,15,04,41,0.00
2009,03,15,04,42,0.00
2009,03,15,04,43,0.00
2009,03,15,04,44,0.00
2009,03,15,04,45,0.00
2009,03,15,04,46,0.00
2009,03,15,04,47,0.00
2009,03,15,04,48,0.00
2009,03,15,04,49,0.00
2009,03,15,04,50,0.00
2009,03,15,04,51,0.00
2009,03,15,04,52,0.00
2009,03,15,04,53,0.00
2009,03,15,04,54,0.00
2009,03,15,04,55,0.00
2009,03,15,04,56,0.00
2009,03,15,04,57,0.00
2009,03,15,04,58,0.00
2009,03,15,04,59,0.00
2009,03,15,05,00,0.00
2009,03,15,05,01,0.00
2009,03,15,05,02,0.00
2009,03,15,05,03,0.00
2009,03,15,05,04,0.00
2009,03,15,05,05,0.00
2009,03,15,05,06,0.00
2009,03,15,05,07,0.30
2009,03,15,05,08,2.10
2009,03,15,05,09,0.90
2009,03,15,05,10,0.90
2009,03,15,05,11,1.50
2009,03,15,05,12,0.00
2009,03,15,05,13,0.60
2009,03,15,05,14,0.80
2009,03,15,05,15,0.00
2009,03,15,05,16,0.00
2009,03,15,05,17,0.00
2009,03,15,05,18,0.00
2009,03,15,05,19,0.00
2009,03,15,05,20,0.00
2009,03,15,05,21,0.00
2009,03,15,05,22,0.00
2009,03,15,05,23,0.00
2009,03,15,05,24,0.00
2009,03,15,05,25,0.00
2009,03,15,05,26,0.00
2009,03,15,05,27,0.20
2009,03,15,05,28,0.70
2009,03,15,05,29,0.10
2009,03,15,05,30,0.00
2009,03,15,05,31,0.00
2009,03,15,05,32,0.00
2009,03,15,05,33,0.00
2009,03,15,05,34,0.00
2009,03,15,05,35,0.00
2009,03,15,05,36,0.00
2009,03,15,05,37,0.00
2009,03,15,05,38,0.00
2009,03,15,05,39,0.00
2009,03,15,05,40,0.00
2009,03,15,05,41,0.00
2009,03,15,05,42,0.10
2009,03,15,05,43,1.60
2009,03,15,05,44,0.80
2009,03,15,05,45,1.60
2009,03,15,05,46,3.30
2009,03,15,05,47,0.30
2009,03,15,05,48,1.80
2009,03,15,05,49,1.30
2009,03,15,05,50,0.20
2009,03,15,05,51,0.40
2009,03,15,05,52,1.20
2009,03,15,05,53,0.50
2009,03,15,05,54,0.70
2009,03,15,05,55,0.00
2009,03,15,05,56,0.00
2009,03,15,05,57,0.00
2009,03,15,05,58,0.00
2009,03,15,05,59,0.00
2009,03,15,06,00,0.00
2009,03,15,06,01,0.00
2009,03,15,06,02,0.00
2009,03,15,06,03,0.00
2009,03,15,06,04,0.00
2009,03,15,06,05,0.00
2009,03,15,06,06,0.00
2009,03,15,06,07,0.00
2009,03,15,06,08,0.00
2009,03,15,06,09,0.00
2009,03,15,06,10,0.00
2009,03,15,06,11,0.00
2009,03,15,06,12,0.00
2009,03,15,06,13,0.00
2009,03,15,06,14,0.00
2009,03,15,06,15,0.00
2009,03,15,06,16,0.00
2009,03,15,06,17,0.20
2009,03,15,06,18,0.00
2009,03,15,06,19,0.00
2009,03,15,06,20,0.00
2009,03,15,06,21,0.00
2009,03,15,06,22,0.00
2009,03,15,06,23,0.00
2009,03,15,06,24,0.00
2009,03,15,06,25,0.00
2009,03,15,06,26,0.00
2009,03,15,06,27,0.00
2009,03,15,06,28,0.00
2009,03,15,06,29,0.00
2009,03,15,06,30,0.00
2009,03,15,06,31,0.00
2009,03,15,06,32,0.00
2009,03,15,06,33,0.00
2009,03,15,06,34,0.00
2009,03,15,06,35,0.20
2009,03,15,06,36,0.10
2009,03,15,06,37,0.00
2009,03,15,06,38,1.30
2009,03,15,06,39,2.80
2009,03,15,06,40,1.10
2009,03,15,06,41,0.10
2009,03,15,06,42,0.00
2009,03,15,06,43,0.10
2009,03,15,06,44,0.10
2009,03,15,06,45,0.60
2009,03,15,06,46,0.50
2009,03,15,06,47,0.00
2009,03,15,06,48,0.00
2009,03,15,06,49,0.00
2009,03,15,06,50,1.60
2009,03,15,06,51,0.80
2009,03,15,06,52,2.00
2009,03,15,06,53,1.10
2009,03,15,06,54,0.20
2009,03,15,06,55,1.10
2009,03,15,06,56,0.20
2009,03,15,06,57,0.00
2009,03,15,06,58,0.00
2009,03,15,06,59,0.00
2009,03,15,07,00,0.00
2009,03,15,07,01,0.00
2009,03,15,07,02,0.00
2009,03,15,07,03,0.00
2009,03,15,07,04,0.00
2009,03,15,07,05,0.00
2009,03,15,07,06,1.40
2009,03,15,07,07,0.80
2009,03,15,07,08,1.80
2009,03,15,07,09,3.30
2009,03,15,07,10,0.50
2009,03,15,07,11,0.00
2009,03,15,07,12,0.00
2009,03,15,07,13,0.00
2009,03,15,07,14,1.10
2009,03,15,07,15,1.30
2009,03,15,07,16,1.30
2009,03,15,07,17,0.00
2009,03,15,07,18,4.20
2009,03,15,07,19,5.80
2009,03,15,07,20,6.40
2009,03,15,07,21,7.10
2009,03,15,07,22,4.70
2009,03,15,07,23,3.50
2009,03,15,07,24,11.10
2009,03,15,07,25,7.40
2009,03,15,07,26,2.50
2009,03,15,07,27,2.10
2009,03,15,07,28,0.80
2009,03,15,07,29,1.00
2009,03,15,07,30,2.60
2009,03,15,07,31,1.40
2009,03,15,07,32,0.00
2009,03,15,07,33,0.00
2009,03,15,07,34,0.00
2009,03,15,07,35,1.10
2009,03,15,07,36,1.10
2009,03,15,07,37,0.90
2009,03,15,07,38,1.00
2009,03,15,07,39,4.80
2009,03,15,07,40,4.30
2009,03,15,07,41,0.50
2009,03,15,07,42,2.10
2009,03,15,07,43,5.90
2009,03,15,07,44,6.80
2009,03,15,07,45,5.20
2009,03,15,07,46,3.00
2009,03,15,07,47,1.30
2009,03,15,07,48,1.70
2009,03,15,07,49,10.10
2009,03,15,07,50,10.30
2009,03,15,07,51,3.20
2009,03,15,07,52,2.50
2009,03,15,07,53,7.00
2009,03,15,07,54,9.00
2009,03,15,07,55,3.00
2009,03,15,07,56,6.10
2009,03,15,07,57,7.50
2009,03,15,07,58,7.80
2009,03,15,07,59,5.50
2009,03,15,08,00,2.60
2009,03,15,08,01,1.70
2009,03,15,08,02,3.00
2009,03,15,08,03,7.40
2009,03,15,08,04,10.70
2009,03,15,08,05,6.10
2009,03,15,08,06,3.70
2009,03,15,08,07,6.00
2009,03,15,08,08,4.90
2009,03,15,08,09,3.80
2009,03,15,08,10,7.20
2009,03,15,08,11,6.30
2009,03,15,08,12,13.40
2009,03,15,08,13,10.00
2009,03,15,08,14,4.10
2009,03,15,08,15,8.70
2009,03,15,08,16,3.10
2009,03,15,08,17,7.80
2009,03,15,08,18,4.50
2009,03,15,08,19,5.70
2009,03,15,08,20,13.30
2009,03,15,08,21,5.70
2009,03,15,08,22,4.00
2009,03,15,08,23,5.90
2009,03,15,08,24,12.40
2009,03,15,08,25,3.30
2009,03,15,08,26,2.40
2009,03,15,08,27,6.00
2009,03,15,08,28,7.40
2009,03,15,08,29,13.50
2009,03,15,08,30,5.40
2009,03,15,08,31,6.80
2009,03,15,08,32,4.00
2009,03,15,08,33,5.30
2009,03,15,08,34,11.60
2009,03,15,08,35,3.60
2009,03,15,08,36,2.30
2009,03,15,08,37,2.80
2009,03,15,08,38,0.50
2009,03,15,08,39,3.10
2009,03,15,08,40,4.10
2009,03,15,08,41,8.80
2009,03,15,08,42,6.70
2009,03,15,08,43,13.10
2009,03,15,08,44,8.00
2009,03,15,08,45,5.50
2009,03,15,08,46,2.30
2009,03,15,08,47,5.50
2009,03,15,08,48,6.30
2009,03,15,08,49,3.10
2009,03,15,08,50,3.10
2009,03,15,08,51,10.20
2009,03,15,08,52,8.20
2009,03,15,08,53,3.20
2009,03,15,08,54,5.10
2009,03,15,08,55,4.70
2009,03,15,08,56,8.60
2009,03,15,08,57,5.50
2009,03,15,08,58,6.50
2009,03,15,08,59,6.90
2009,03,15,09,00,4.20
2009,03,15,09,01,8.80
2009,03,15,09,02,3.60
2009,03,15,09,03,10.70
2009,03,15,09,04,13.40
2009,03,15,09,05,9.40
2009,03,15,09,06,4.00
2009,03,15,09,07,2.70
2009,03,15,09,08,4.80
2009,03,15,09,09,4.40
2009,03,15,09,10,7.40
2009,03,15,09,11,6.20
2009,03,15,09,12,3.00
2009,03,15,09,13,2.60
2009,03,15,09,14,3.40
2009,03,15,09,15,3.90
2009,03,15,09,16,3.60
2009,03,15,09,17,0.70
2009,03,15,09,18,9.70
2009,03,15,09,19,7.00
2009,03,15,09,20,8.70
2009,03,15,09,21,4.40
2009,03,15,09,22,6.70
2009,03,15,09,23,7.80
2009,03,15,09,24,3.50
2009,03,15,09,25,8.90
2009,03,15,09,26,10.90
2009,03,15,09,27,9.10
2009,03,15,09,28,4.30
2009,03,15,09,29,2.80
2009,03,15,09,30,17.50
2009,03,15,09,31,17.00
2009,03,15,09,32,4.00
2009,03,15,09,33,3.60
2009,03,15,09,34,8.10
2009,03,15,09,35,0.40
2009,03,15,09,36,10.70
2009,03,15,09,37,9.10
2009,03,15,09,38,7.40
2009,03,15,09,39,4.70
2009,03,15,09,40,3.10
2009,03,15,09,41,8.90
2009,03,15,09,42,10.80
2009,03,15,09,43,11.90
2009,03,15,09,44,5.40
2009,03,15,09,45,3.30
2009,03,15,09,46,8.40
2009,03,15,09,47,6.80
2009,03,15,09,48,4.40
2009,03,15,09,49,8.20
2009,03,15,09,50,13.20
2009,03,15,09,51,5.90
2009,03,15,09,52,17.40
2009,03,15,09,53,11.90
2009,03,15,09,54,9.00
2009,03,15,09,55,7.20
2009,03,15,09,56,9.60
2009,03,15,09,57,4.30
2009,03,15,09,58,10.20
2009,03,15,09,59,7.60
2009,03,15,10,00,2.10
2009,03,15,10,01,4.00
2009,03,15,10,02,1.20
2009,03,15,10,03,1.40
2009,03,15,10,04,1.40
2009,03,15,10,05,1.30
2009,03,15,10,06,4.00
2009,03,15,10,07,5.40
2009,03,15,10,08,3.60
2009,03,15,10,09,2.00
2009,03,15,10,10,2.70
2009,03,15,10,11,6.70
2009,03,15,10,12,4.60
2009,03,15,10,13,6.40
2009,03,15,10,14,4.30
2009,03,15,10,15,7.40
2009,03,15,10,16,1.40
2009,03,15,10,17,2.70
2009,03,15,10,18,3.90
2009,03,15,10,19,7.10
2009,03,15,10,20,5.70
2009,03,15,10,21,9.40
2009,03,15,10,22,6.40
2009,03,15,10,23,13.60
2009,03,15,10,24,3.00
2009,03,15,10,25,0.00
2009,03,15,10,26,3.40
2009,03,15,10,27,1.70
2009,03,15,10,28,7.50
2009,03,15,10,29,3.90
2009,03,15,10,30,5.70
2009,03,15,10,31,0.70
2009,03,15,10,32,5.30
2009,03,15,10,33,4.70
2009,03,15,10,34,5.40
2009,03,15,10,35,6.00
2009,03,15,10,36,8.70
2009,03,15,10,37,4.50
2009,03,15,10,38,4.10
2009,03,15,10,39,3.10
2009,03,15,10,40,0.70
2009,03,15,10,41,4.40
2009,03,15,10,42,7.60
2009,03,15,10,43,3.90
2009,03,15,10,44,3.20
2009,03,15,10,45,7.70
2009,03,15,10,46,11.80
2009,03,15,10,47,18.00
2009,03,15,10,48,9.10
2009,03,15,10,49,3.90
2009,03,15,10,50,6.10
2009,03,15,10,51,4.20
2009,03,15,10,52,1.40
2009,03,15,10,53,1.50
2009,03,15,10,54,11.50
2009,03,15,10,55,4.10
2009,03,15,10,56,2.70
2009,03,15,10,57,5.10
2009,03,15,10,58,4.40
2009,03,15,10,59,1.80
2009,03,15,11,00,4.60
2009,03,15,11,01,3.50
2009,03,15,11,02,7.00
2009,03,15,11,03,1.50
2009,03,15,11,04,6.00
2009,03,15,11,05,5.30
2009,03,15,11,06,3.00
2009,03,15,11,07,2.00
2009,03,15,11,08,3.10
2009,03,15,11,09,1.80
2009,03,15,11,10,2.90
2009,03,15,11,11,5.00
2009,03,15,11,12,6.30
2009,03,15,11,13,5.30
2009,03,15,11,14,4.10
2009,03,15,11,15,3.30
2009,03,15,11,16,4.80
2009,03,15,11,17,7.70
2009,03,15,11,18,2.40
2009,03,15,11,19,3.50
2009,03,15,11,20,9.50
2009,03,15,11,21,2.70
2009,03,15,11,22,3.00
2009,03,15,11,23,1.80
2009,03,15,11,24,3.40
2009,03,15,11,25,8.00
2009,03,15,11,26,9.80
2009,03,15,11,27,3.10
2009,03,15,11,28,0.90
2009,03,15,11,29,7.40
2009,03,15,11,30,2.70
2009,03,15,11,31,3.10
2009,03,15,11,32,3.40
2009,03,15,11,33,2.60
2009,03,15,11,34,3.60
2009,03,15,11,35,5.20
2009,03,15,11,36,5.90
2009,03,15,11,37,2.30
2009,03,15,11,38,3.60
2009,03,15,11,39,1.00
2009,03,15,11,40,3.50
2009,03,15,11,41,6.40
2009,03,15,11,42,6.90
2009,03,15,11,43,6.90
2009,03,15,11,44,1.90
2009,03,15,11,45,8.80
2009,03,15,11,46,4.40
2009,03,15,11,47,2.80
2009,03,15,11,48,3.40
2009,03,15,11,49,3.90
2009,03,15,11,50,2.50
2009,03,15,11,51,2.70
2009,03,15,11,52,4.50
2009,03,15,11,53,2.30
2009,03,15,11,54,4.00
2009,03,15,11,55,1.30
2009,03,15,11,56,0.20
2009,03,15,11,57,0.20
2009,03,15,11,58,2.50
2009,03,15,11,59,2.20
2009,03,15,12,00,2.10
2009,03,15,12,01,0.80
2009,03,15,12,02,3.60
2009,03,15,12,03,1.10
2009,03,15,12,04,0.40
2009,03,15,12,05,0.50
2009,03,15,12,06,1.40
2009,03,15,12,07,2.90
2009,03,15,12,08,0.60
2009,03,15,12,09,1.00
2009,03,15,12,10,5.10
2009,03,15,12,11,8.90
2009,03,15,12,12,6.70
2009,03,15,12,13,3.70
2009,03,15,12,14,5.80
2009,03,15,12,15,6.40
2009,03,15,12,16,8.00
2009,03,15,12,17,6.90
2009,03,15,12,18,6.40
2009,03,15,12,19,5.80
2009,03,15,12,20,10.20
2009,03,15,12,21,9.90
2009,03,15,12,22,9.80
2009,03,15,12,23,8.80
2009,03,15,12,24,9.40
2009,03,15,12,25,8.50
2009,03,15,12,26,6.10
2009,03,15,12,27,5.80
2009,03,15,12,28,7.90
2009,03,15,12,29,7.10
2009,03,15,12,30,8.90
2009,03,15,12,31,6.40
2009,03,15,12,32,8.60
2009,03,15,12,33,8.30
2009,03,15,12,34,2.00
2009,03,15,12,35,2.60
2009,03,15,12,36,8.30
2009,03,15,12,37,12.40
2009,03,15,12,38,6.40
2009,03,15,12,39,8.20
2009,03,15,12,40,10.10
2009,03,15,12,41,9.30
2009,03,15,12,42,9.00
2009,03,15,12,43,10.30
2009,03,15,12,44,9.30
2009,03,15,12,45,9.70
2009,03,15,12,46,8.70
2009,03,15,12,47,6.00
2009,03,15,12,48,15.00
2009,03,15,12,49,20.80
2009,03,15,12,50,23.20
2009,03,15,12,51,22.40
2009,03,15,12,52,17.20
2009,03,15,12,53,22.70
2009,03,15,12,54,21.60
2009,03,15,12,55,16.90
2009,03,15,12,56,15.30
2009,03,15,12,57,12.00
2009,03,15,12,58,12.20
2009,03,15,12,59,15.50
2009,03,15,13,00,21.10
2009,03,15,13,01,11.20
2009,03,15,13,02,16.10
2009,03,15,13,03,18.10
2009,03,15,13,04,17.40
2009,03,15,13,05,11.70
2009,03,15,13,06,16.20
2009,03,15,13,07,14.20
2009,03,15,13,08,11.20
2009,03,15,13,09,14.40
2009,03,15,13,10,18.60
2009,03,15,13,11,19.30
2009,03,15,13,12,19.20
2009,03,15,13,13,18.40
2009,03,15,13,14,19.50
2009,03,15,13,15,15.40
2009,03,15,13,16,19.10
2009,03,15,13,17,20.80
2009,03,15,13,18,15.40
2009,03,15,13,19,21.00
2009,03,15,13,20,21.90
2009,03,15,13,21,15.60
2009,03,15,13,22,20.40
2009,03,15,13,23,16.60
2009,03,15,13,24,12.90
2009,03,15,13,25,18.60
2009,03,15,13,26,27.20
2009,03,15,13,27,27.40
2009,03,15,13,28,17.30
2009,03,15,13,29,14.20
2009,03,15,13,30,22.30
2009,03,15,13,31,23.60
2009,03,15,13,32,19.50
2009,03,15,13,33,25.90
2009,03,15,13,34,31.00
2009,03,15,13,35,31.80
2009,03,15,13,36,28.30
2009,03,15,13,37,30.30
2009,03,15,13,38,18.70
2009,03,15,13,39,27.90
2009,03,15,13,40,27.50
2009,03,15,13,41,18.70
2009,03,15,13,42,23.50
2009,03,15,13,43,31.00
2009,03,15,13,44,27.70
2009,03,15,13,45,35.20
2009,03,15,13,46,36.10
2009,03,15,13,47,27.40
2009,03,15,13,48,27.00
2009,03,15,13,49,32.40
2009,03,15,13,50,33.30
2009,03,15,13,51,33.80
2009,03,15,13,52,42.40
2009,03,15,13,53,27.00
2009,03,15,13,54,30.50
2009,03,15,13,55,26.80
2009,03,15,13,56,32.30
2009,03,15,13,57,27.70
2009,03,15,13,58,32.70
2009,03,15,13,59,28.90
2009,03,15,14,00,28.00
2009,03,15,14,01,21.50
2009,03,15,14,02,28.70
2009,03,15,14,03,23.10
2009,03,15,14,04,27.10
2009,03,15,14,05,24.30
2009,03,15,14,06,29.50
2009,03,15,14,07,30.00
2009,03,15,14,08,25.90
2009,03,15,14,09,26.30
2009,03,15,14,10,22.20
2009,03,15,14,11,21.50
2009,03,15,14,12,15.00
2009,03,15,14,13,13.40
2009,03,15,14,14,12.80
2009,03,15,14,15,15.60
2009,03,15,14,16,10.80
2009,03,15,14,17,15.40
2009,03,15,14,18,17.60
2009,03,15,14,19,13.80
2009,03,15,14,20,10.30
2009,03,15,14,21,15.40
2009,03,15,14,22,14.20
2009,03,15,14,23,23.10
2009,03,15,14,24,19.30
2009,03,15,14,25,12.10
2009,03,15,14,26,15.50
2009,03,15,14,27,22.80
2009,03,15,14,28,15.40
2009,03,15,14,29,18.40
2009,03,15,14,30,20.40
2009,03,15,14,31,17.30
2009,03,15,14,32,11.40
2009,03,15,14,33,18.40
2009,03,15,14,34,17.50
2009,03,15,14,35,14.40
2009,03,15,14,36,16.90
2009,03,15,14,37,20.80
2009,03,15,14,38,17.90
2009,03,15,14,39,20.80
2009,03,15,14,40,22.50
2009,03,15,14,41,19.10
2009,03,15,14,42,24.40
2009,03,15,14,43,27.40
2009,03,15,14,44,24.30
2009,03,15,14,45,18.40
2009,03,15,14,46,16.30
2009,03,15,14,47,18.50
2009,03,15,14,48,27.10
2009,03,15,14,49,20.40
2009,03,15,14,50,28.00
2009,03,15,14,51,23.50
2009,03,15,14,52,28.20
2009,03,15,14,53,27.60
2009,03,15,14,54,24.80
2009,03,15,14,55,19.70
2009,03,15,14,56,22.30
2009,03,15,14,57,14.70
2009,03,15,14,58,20.10
2009,03,15,14,59,27.30
2009,03,15,15,00,30.40
2009,03,15,15,01,18.50
2009,03,15,15,02,14.10
2009,03,15,15,03,18.30
2009,03,15,15,04,26.70
2009,03,15,15,05,25.50
2009,03,15,15,06,52.30
2009,03,15,15,07,38.50
2009,03,15,15,08,29.20
2009,03,15,15,09,39.90
2009,03,15,15,10,38.40
2009,03,15,15,11,37.90
2009,03,15,15,12,39.30
2009,03,15,15,13,41.80
2009,03,15,15,14,32.10
2009,03,15,15,15,24.90
2009,03,15,15,16,40.00
2009,03,15,15,17,23.50
2009,03,15,15,18,26.30
2009,03,15,15,19,28.80
2009,03,15,15,20,27.90
2009,03,15,15,21,25.30
2009,03,15,15,22,22.80
2009,03,15,15,23,26.00
2009,03,15,15,24,33.30
2009,03,15,15,25,19.10
2009,03,15,15,26,18.30
2009,03,15,15,27,18.60
2009,03,15,15,28,21.60
2009,03,15,15,29,22.90
2009,03,15,15,30,19.20
2009,03,15,15,31,17.90
2009,03,15,15,32,17.10
2009,03,15,15,33,19.30
2009,03,15,15,34,22.00
2009,03,15,15,35,24.30
2009,03,15,15,36,15.40
2009,03,15,15,37,14.80
2009,03,15,15,38,9.70
2009,03,15,15,39,14.00
2009,03,15,15,40,10.20
2009,03,15,15,41,17.90
2009,03,15,15,42,17.40
2009,03,15,15,43,14.70
2009,03,15,15,44,11.10
2009,03,15,15,45,11.70
2009,03,15,15,46,11.80
2009,03,15,15,47,12.80
2009,03,15,15,48,15.00
2009,03,15,15,49,11.50
2009,03,15,15,50,16.10
2009,03,15,15,51,18.80
2009,03,15,15,52,20.50
2009,03,15,15,53,22.60
2009,03,15,15,54,26.10
2009,03,15,15,55,20.60
2009,03,15,15,56,23.80
2009,03,15,15,57,26.70
2009,03,15,15,58,25.00
2009,03,15,15,59,19.90
2009,03,15,16,00,24.50
2009,03,15,16,01,28.00
2009,03,15,16,02,17.30
2009,03,15,16,03,20.90
2009,03,15,16,04,22.90
2009,03,15,16,05,26.30
2009,03,15,16,06,26.10
2009,03,15,16,07,29.00
2009,03,15,16,08,21.10
2009,03,15,16,09,23.20
2009,03,15,16,10,26.10
2009,03,15,16,11,26.90
2009,03,15,16,12,26.60
2009,03,15,16,13,25.30
2009,03,15,16,14,31.10
2009,03,15,16,15,39.20
2009,03,15,16,16,37.50
2009,03,15,16,17,25.10
2009,03,15,16,18,18.00
2009,03,15,16,19,24.30
2009,03,15,16,20,28.70
2009,03,15,16,21,25.30
2009,03,15,16,22,17.40
2009,03,15,16,23,19.30
2009,03,15,16,24,21.30
2009,03,15,16,25,22.70
2009,03,15,16,26,18.10
2009,03,15,16,27,14.90
2009,03,15,16,28,17.70
2009,03,15,16,29,16.60
2009,03,15,16,30,14.50
2009,03,15,16,31,24.90
2009,03,15,16,32,21.60
2009,03,15,16,33,22.00
2009,03,15,16,34,24.40
2009,03,15,16,35,10.90
2009,03,15,16,36,15.00
2009,03,15,16,37,12.00
2009,03,15,16,38,25.70
2009,03,15,16,39,29.60
2009,03,15,16,40,19.60
2009,03,15,16,41,20.60
2009,03,15,16,42,25.10
2009,03,15,16,43,22.10
2009,03,15,16,44,16.30
2009,03,15,16,45,28.30
2009,03,15,16,46,20.00
2009,03,15,16,47,26.30
2009,03,15,16,48,27.30
2009,03,15,16,49,28.00
2009,03,15,16,50,22.60
2009,03,15,16,51,19.00
2009,03,15,16,52,17.30
2009,03,15,16,53,14.40
2009,03,15,16,54,20.00
2009,03,15,16,55,16.60
2009,03,15,16,56,27.70
2009,03,15,16,57,26.20
2009,03,15,16,58,21.90
2009,03,15,16,59,25.20
2009,03,15,17,00,20.70
2009,03,15,17,01,18.00
2009,03,15,17,02,16.00
2009,03,15,17,03,20.30
2009,03,15,17,04,18.90
2009,03,15,17,05,19.80
2009,03,15,17,06,17.90
2009,03,15,17,07,16.30
2009,03,15,17,08,20.30
2009,03,15,17,09,19.30
2009,03,15,17,10,18.00
2009,03,15,17,11,13.30
2009,03,15,17,12,14.90
2009,03,15,17,13,12.40
2009,03,15,17,14,13.00
2009,03,15,17,15,15.20
2009,03,15,17,16,19.00
2009,03,15,17,17,13.20
2009,03,15,17,18,10.20
2009,03,15,17,19,12.70
2009,03,15,17,20,18.80
2009,03,15,17,21,13.60
2009,03,15,17,22,21.40
2009,03,15,17,23,14.20
2009,03,15,17,24,17.20
2009,03,15,17,25,18.80
2009,03,15,17,26,13.40
2009,03,15,17,27,15.70
2009,03,15,17,28,14.30
2009,03,15,17,29,13.70
2009,03,15,17,30,23.40
2009,03,15,17,31,26.30
2009,03,15,17,32,22.20
2009,03,15,17,33,17.60
2009,03,15,17,34,12.20
2009,03,15,17,35,15.20
2009,03,15,17,36,19.20
2009,03,15,17,37,14.80
2009,03,15,17,38,13.50
2009,03,15,17,39,8.50
2009,03,15,17,40,7.50
2009,03,15,17,41,7.50
2009,03,15,17,42,3.40
2009,03,15,17,43,5.50
2009,03,15,17,44,3.70
2009,03,15,17,45,3.90
2009,03,15,17,46,4.70
2009,03,15,17,47,1.90
2009,03,15,17,48,8.70
2009,03,15,17,49,4.90
2009,03,15,17,50,2.00
2009,03,15,17,51,4.10
2009,03,15,17,52,5.10
2009,03,15,17,53,2.80
2009,03,15,17,54,5.20
2009,03,15,17,55,5.90
2009,03,15,17,56,0.70
2009,03,15,17,57,2.80
2009,03,15,17,58,2.40
2009,03,15,17,59,1.90
2009,03,15,18,00,0.50
2009,03,15,18,01,0.00
2009,03,15,18,02,1.60
2009,03,15,18,03,4.90
2009,03,15,18,04,3.60
2009,03,15,18,05,5.40
2009,03,15,18,06,9.60
2009,03,15,18,07,5.30
2009,03,15,18,08,3.40
2009,03,15,18,09,4.10
2009,03,15,18,10,1.60
2009,03,15,18,11,2.90
2009,03,15,18,12,1.70
2009,03,15,18,13,0.60
2009,03,15,18,14,2.70
2009,03,15,18,15,2.90
2009,03,15,18,16,2.30
2009,03,15,18,17,4.80
2009,03,15,18,18,6.50
2009,03,15,18,19,5.40
2009,03,15,18,20,2.10
2009,03,15,18,21,3.20
2009,03,15,18,22,3.60
2009,03,15,18,23,4.40
2009,03,15,18,24,7.00
2009,03,15,18,25,6.00
2009,03,15,18,26,6.60
2009,03,15,18,27,5.60
2009,03,15,18,28,0.80
2009,03,15,18,29,2.40
2009,03,15,18,30,1.60
2009,03,15,18,31,2.10
2009,03,15,18,32,1.40
2009,03,15,18,33,1.50
2009,03,15,18,34,5.60
2009,03,15,18,35,7.50
2009,03,15,18,36,3.00
2009,03,15,18,37,1.00
2009,03,15,18,38,5.30